Location: Ertinghausen
(51.6624°N, 9.7874°E)
Time: 20:17:03
(UTC+00:00)

CZ-2C R/B - Pass Details

Date: 18 August 2024
Orbit: 703 x 904 km, 98.2° (Epoch: 07 September)

Event Time Altitude Azimuth Distance (km) Brightness Sun altitude
Rises 01:09:03 0° 16° (NNE) 3,235 7.7 -21.5°
Reaches altitude 10° 01:11:20 10° 21° (NNE) 2,333 6.7 -21.3°
Maximum altitude 01:16:27 61° 102° (ESE) 913 3.4 -21.0°
Enters shadow 01:18:45 33° 169° (SSE) 1,342 3.8 -20.8°
